Tracking 20093 objects as of 14-Dec-2019
HD Live streaming from Space Station
objects crossing your sky now

FENGYUN 1C DEB

Track FENGYUN 1C DEB now!
10-day predictions


NORAD ID: 31852
Int'l Code: 1999-025CJS
Perigee: 514.0 km
Apogee: 1,159.1 km
Inclination: 98.8 °
Period: 101.5 minutes
Semi major axis: 7207 km
RCS: 0.0137 m2 (small)
Launch date: May 10, 1999
Source: People's Republic of China (PRC)
Launch site: Taiyaun Space Center, China (TSC)

Note: This is SATELLITE DEBRIS
aabbcc
Your satellite tracking list
Your tracking list is empty




NASA's NSSDC Master Catalog

Two Line Element Set (TLE):
1 31852U 99025CJS 19346.28138455 +.00001863 +00000-0 +33516-3 0  9992
2 31852 098.7578 180.8858 0447560 131.8442 232.1857 14.18799846634998
Source of the keplerian elements: AFSPC